Location: Newark
(30.2328°N, 54.2869°E)
Time: 16:26:30
(UTC+00:00)

Hubble Space Telescope - Pass Details

Date: 25 July 2019
Orbit: 536 x 540 km, 28.5° (Epoch: 20 August)

Event Time Altitude Azimuth Distance (km) Brightness Sun altitude
Exits shadow 01:04:41 - 216° (SW) 2,083 3.2 -7.1°
Reaches altitude 10° 01:05:38 10° 209° (SSW) 1,780 2.9 -6.9°
Maximum altitude 01:08:49 22° 158° (SSE) 1,207 2.5 -6.3°
Drops below altitude 10° 01:12:01 10° 107° (ESE) 1,781 4.2 -5.7°
Sets 01:14:39 0° 92° (E) 2,673 5.6 -5.2°
